Regional Weather Roundup
Issued by NWS

Home | Current Version | Previous Version | Text Only | Print | Product List | Glossary Off
Versions: 1 2 3 4 5 6 7 8 9 10 11 12 13 14 15 16 17 18 19 20 21 22 23 24 25 26 27 28 29 30 31 32 33 34 35 36 37 38 39 40 41 42 43 44 45 46 47 48 49 50

000
ASUS43 KMPX 260501
RWRMN
WEATHER ROUNDUP FOR MINNESOTA
NATIONAL WEATHER SERVICE TWIN CITIES/CHANHASSEN MN
1100 PM CST THU DEC 25 2014


NOTE: "FAIR" INDICATES FEW OR NO CLOUDS BELOW 12,000 FEET WITH NO
SIGNIFICANT WEATHER AND/OR OBSTRUCTIONS TO VISIBILITY. N/A MEANS
CURRENT SKY AND/OR WEATHER CONDITIONS ARE NOT AVAILABLE.

MNZ060>063-068>070-260600-
   Twin Cities Metro

CITY           SKY/WX    TMP DP  RH WIND       PRES   REMARKS
TWIN CITIES    MOCLDY    30  28  92 N6        29.87R WCI  24
ST PAUL        PTCLDY    31  29  92 CALM      29.88R
CRYSTAL        CLOUDY    33  31  92 NE6       29.86R FOG     WCI  28
BLAINE         CLOUDY    34  34 100 NE5       29.87R FOG     WCI  30
LAKEVILLE      PTCLDY    28  27  93 N3        29.85R
EDEN PRAIRIE   MOCLDY    31  30  96 NE6       29.84S FOG     WCI  25
SOUTH ST PAUL  PTCLDY    32  30  93 N3        29.86S
LAKE ELMO      FAIR      32  30  93 NE5       29.87S FOG     WCI  27
$$
MNZ001>005-007-008-013>017-022>024-027-028-260600-
   Northwest Minnesota

CITY           SKY/WX    TMP DP  RH WIND       PRES   REMARKS
BEMIDJI        CLOUDY    25  21  86 N3        29.94R
HALLOCK        CLOUDY    25  19  80 NW14      30.02R WCI  13
ROSEAU         CLOUDY    27  19  74 NW6       29.98R WCI  20
WARROAD        CLOUDY    25  19  80 NW13      29.97R WCI  13
THIEF RVR FALL CLOUDY    25  21  86 NW7       29.98R WCI  17
CROOKSTON      CLOUDY    27  21  80 N9        30.01R WCI  17
FOSSTON        CLOUDY    23  21  93 N9        29.97R WCI  13
DETROIT LAKES  CLOUDY    27  23  86 N6        29.95R WCI  20
MOORHEAD       CLOUDY    27  27 100 CALM      29.99R
PARK RAPIDS    CLOUDY    26  20  77 N7        29.92R WCI  18
MAHNOMEN       CLOUDY    25  22  88 N9        29.95R WCI  16
$$
MNZ006-009>011-018-025>026-260600-
   North Central Minnesota

CITY           SKY/WX    TMP DP  RH WIND       PRES   REMARKS
BAUDETTE       CLOUDY    25  20  81 NW12      29.94R WCI  14
FLAG ISLAND    CLOUDY    23  19  86 NW10      29.95R WCI  12
INTL FALLS     CLOUDY    27  24  89 W5        29.91R WCI  22
WASKISH        CLOUDY    27  21  80 CALM      29.94R
BIG FORK       CLOUDY    27  21  80 CALM      29.92R
LONGVILLE      CLOUDY    27  21  80 N5        29.93R WCI  21
GRAND RAPIDS   CLOUDY    27  21  80 NW8       29.90R WCI  18
CRANE LAKE     CLOUDY    27  21  80 CALM      29.93R
ORR            CLOUDY    27  21  80 NW6       29.89R WCI  20
COOK           CLOUDY    27  21  80 CALM      29.91R
WALKER         CLOUDY    25  21  85 N5        29.93R WCI  19
$$
MNZ012-019>021-037-260600-
   Northeast Minnesota

CITY           SKY/WX    TMP DP  RH WIND       PRES   REMARKS
DULUTH         CLOUDY    30  24  78 N5        29.87R WCI  25
ELY            CLOUDY    27  21  80 NW5       29.89R WCI  21
HIBBING        CLOUDY    29  21  72 N10       29.90R WCI  20
EVELETH        CLOUDY    30  27  86 NW6       29.90R WCI  24
DULUTH HARBOR  CLOUDY    34  28  80 CALM      29.92R
TWO HARBORS    CLOUDY    34  27  75 CALM      29.88R
SILVER BAY     CLOUDY    30  27  86 CALM      29.88R
GRAND MARAIS     N/A     32  27  81 CALM      29.90R
G MARAIS ARPRT CLOUDY    25  21  86 CALM      29.85R
$$
MNZ029>031-032-039>041-046>048-054>057-064-260600-
   West Central Minnesota

CITY           SKY/WX    TMP DP  RH WIND       PRES   REMARKS
FERGUS FALLS   CLOUDY    27  21  80 N8        29.98R WCI  18
WHEATON        CLOUDY    25  21  86 N12G17    29.98R WCI  14
MORRIS         LGT SNOW  28  27  93 N13       29.92R VSB 1   WCI  18
ALEXANDRIA     LGT SNOW  28  24  85 N7        29.91R FOG     WCI  21
ELBOW LAKE     CLOUDY    26  23  87 N12       29.93R WCI  16
WADENA         CLOUDY    27  23  86 N10       29.91R WCI  17
GLENWOOD       LGT SNOW  28  27  93 N7        29.90S WCI  21
APPLETON       LGT SNOW  30  27  86 N13       29.92R WCI  20
BENSON         LGT SNOW  28  27  93 N9        29.91R WCI  20
ORTONVILLE     LGT SNOW  27  25  93 N13       29.93R WCI  16
MADISON        LGT SNOW  32  30  93 N14       29.91S WCI  22
WILLMAR        CLOUDY    30  28  93 N12       29.88F WCI  21
$$
MNZ033>034-036-042>043-049>051-058-059-260600-
   Central Minnesota

CITY           SKY/WX    TMP DP  RH WIND       PRES   REMARKS
ST CLOUD       LGT SNOW  33  28  81 N7        29.89R WCI  27
SAUK CENTRE    LGT SNOW  28  28  96 N6        29.90S WCI  22
PAYNESVILLE    LGT SNOW  27  27 100 NW7       29.89S WCI  20
AITKIN         CLOUDY    32  27  80 CALM      29.89R
PINE RIVER     CLOUDY    28  23  80 N7        29.95R WCI  21
BRAINERD       CLOUDY    29  25  85 N6        29.91R WCI  23
STAPLES        CLOUDY    28  23  80 N9        29.91R WCI  20
LONG PRAIRIE   LGT SNOW  28  27  93 NW3       29.90R
LITTLE FALLS   LGT SNOW  30  27  86 CALM      29.91R
LITCHFIELD     CLOUDY    32  32 100 N7        29.86F FOG     WCI  26
BUFFALO        CLOUDY    32  31  96 CALM      29.87S FOG
MAPLE LAKE     MOCLDY    32  32 100 N5        29.87F FOG     WCI  27
$$
MNZ037-044-045-052-053-260600-
   East Central Minnesota

CITY           SKY/WX    TMP DP  RH WIND       PRES   REMARKS
PRINCETON      LGT SNOW  32  30  93 CALM      29.89R
MORA           CLOUDY    32  30  93 CALM      29.91R
CAMBRIDGE      LGT SNOW  34  27  75 CALM      29.86F
RUSH CITY      LGT RAIN  31  31  99 CALM      29.89S
MOOSE LAKE     MIX PCPN  32  28  86 CALM      29.88R
HINCKLEY       LGT SNOW  32  32 100 CALM      29.90R
CLOQUET        CLOUDY    28  27  93 CALM      29.89R
MCGREGOR       CLOUDY    30  28  93 NW3       29.90R
$$
MNZ071>073-080-081-089-090-097-098-260600-
   Southwest Minnesota

CITY           SKY/WX    TMP DP  RH WIND       PRES   REMARKS
MONTEVIDEO     CLOUDY    28  28 100 N13       29.91R WCI  18
GRANITE FALLS  CLOUDY    30  29  96 N13       29.89R WCI  20
CANBY          CLOUDY    28  27  95 N14G20    29.90S WCI  17
MARSHALL       CLOUDY    28  25  86 N15       29.87R WCI  17
REDWOOD FALLS  CLOUDY    33  31  92 N7        29.85R FOG     WCI  27
OLIVIA         CLOUDY    30  30 100 N12       29.85S FOG     WCI  21
PIPESTONE      CLOUDY    28  27  93 NE13G20   29.81R WCI  18
WINDOM         CLOUDY    30  30 100 N14       29.80S FOG     WCI  20
WORTHINGTON    CLOUDY    30 -17  12 N13G18    29.80S WCI  20
JACKSON        CLOUDY    32  30  93 N14       29.79S WCI  22
TRACY          CLOUDY    31  31  99 N14       29.84S FOG     WCI  21
SLAYTON        CLOUDY    29  29  99 N13       29.82S FOG     WCI  19
$$
MNZ065>067-074>077-082>085-091>093-260600-
   South Central Minnesota

CITY           SKY/WX    TMP DP  RH WIND       PRES   REMARKS
MANKATO        CLOUDY    32  27  80 NE8       29.82S WCI  25
NEW ULM        CLOUDY    32  30  93 NE7       29.83R FOG     WCI  26
ST JAMES       CLOUDY    34  30  86 N8        29.83R FOG     WCI  27
FAIRMONT       CLOUDY    32  28  86 N10       29.79S WCI  24
GLENCOE        CLOUDY    33  32  98 N6        29.84F FOG     WCI  27
FARIBAULT      CLOUDY    30  30 100 N6        29.83R WCI  24
OWATONNA       PTCLDY    30  28  93 CALM      29.82S
ALBERT LEA     CLEAR     28  28 100 NE3       29.78S
$$
MNZ078>079-086>088-094>096-260600-
   Southeast Minnesota

CITY           SKY/WX    TMP DP  RH WIND       PRES   REMARKS
ROCHESTER      PTCLDY    29  26  89 SE9       29.81S WCI  20
RED WING       MOCLDY    30  28  93 CALM      29.85R
STANTON        PTCLDY    31  29  92 NE3       29.83S FOG
DODGE CENTER   PTCLDY    27  27 100 N6        29.80S FOG     WCI  20
WINONA         PTCLDY    32  30  93 CALM      29.86S
AUSTIN         CLEAR     34  30  86 CALM      29.79F
PRESTON        PTCLDY    33  30  88 S6        29.81F WCI  27
$$
ABBREVIATIONS USED IN REMARKS
   TC - TEMPERATURES IN CELSIUS
  WCI - WIND CHILL INDEX
   HX - HEAT INDEX
  VSB - VISIBILITY
$$



USA.gov is the U.S. government's official web portal to all federal, state and local government web resources and services.